Regional Weather Roundup
Issued by NWS

Home | Current Version | Previous Version | Graphics & Text | Print | Product List | Glossary On
Versions: 1 2 3 4 5 6 7 8 9 10 11 12 13 14 15 16 17 18 19 20 21 22 23 24 25 26 27 28 29 30 31 32 33 34 35 36 37 38 39 40 41 42 43 44 45 46 47 48 49 50
000
ASUS43 KTOP 050708
RWRKS

WEATHER ROUNDUP FOR KANSAS
NATIONAL WEATHER SERVICE GOODLAND KS
200 AM CDT SAT SEP 05 2015

NOTE:  "FAIR" INDICATES FEW OR NO CLOUDS BELOW 12,000 FEET WITH NO
SIGNIFICANT WEATHER AND/OR OBSTRUCTIONS TO VISIBILITY.

KSZ001>006-013>018-027>032-041>047-050800-
NORTHWEST KANSAS

CITY           SKY/WX    TMP DP  RH WIND       PRES   REMARKS
GOODLAND       MOCLDY    76  55  48 S15       29.91R
HAYS           CLEAR     79  57  47 S14       29.91S
HILL CITY      CLEAR     81  60  48 S13       29.89R
RUSSELL        CLEAR     78  63  59 S15       29.90S
$$

KSZ061>065-074>080-084>089-050800-
SOUTHWEST KANSAS

CITY           SKY/WX    TMP DP  RH WIND       PRES   REMARKS
DODGE CITY     PTCLDY    75  58  55 S15       29.95S
ELKHART          N/A     75  56  51 S9          N/A
GARDEN CITY    PTCLDY    74  59  59 S14       29.94S
GREAT BEND     CLEAR     79  63  57 S16       29.93R
LIBERAL        PTCLDY    75  55  50 SE10      29.98R
PRATT          CLEAR     77  61  57 MISG      29.97R
$$

KSZ066>073-081>083-090>101-050800-
SOUTHEAST KANSAS

CITY           SKY/WX    TMP DP  RH WIND       PRES   REMARKS
CHANUTE        CLEAR     74  70  87 SE6       29.98S
COFFEYVILLE    CLEAR     72  70  93 CALM      29.97S
HUTCHINSON     CLEAR     76  67  73 SE9       29.96R
MEDICINE LODGE   N/A     76  65  68 SE7       29.94R
NEWTON         CLEAR     73  64  73 S10       29.99S
PARSONS        CLEAR     76  71  85 SE3       29.99S
WICHITA INTL   CLEAR     76  68  76 S9        29.96R
WICHITA JABRA  CLEAR     76  69  79 S10       29.96S
WICHITA MCCONL CLEAR     76  67  71 SE10      29.96S
WINFIELD       CLEAR     76  69  79 SE7       29.98R
$$

KSZ007>012-019>026-033>040-048>060-102>105-050800-
NORTHEAST KANSAS

CITY           SKY/WX    TMP DP  RH WIND       PRES   REMARKS
CONCORDIA      CLEAR     76  67  73 S14       29.92R
EMPORIA        CLEAR     74  69  85 S10       29.97F
LAWRENCE       CLEAR     72  68  87 E7        29.98R
MANHATTAN      CLEAR     78  70  76 S10       29.93S
MARYSVILLE     CLEAR     75  70  83 S9        29.94S
OLATHE IND     CLEAR     74  69  85 SE7       30.01R
OLATHE EXE     CLEAR     72  69  90 SE5       30.00R
SALINA         CLEAR     78  67  68 S14       29.92S
TOPEKA BILLARD CLEAR     76  69  79 S6        29.97R
TOPEKA FORBES  CLEAR     75  69  81 SE6       29.98R
$$



USA.gov is the U.S. government's official web portal to all federal, state and local government web resources and services.